Nuiqsut, AK

3:37 AM AKDT on July 26, 2017 (GMT -0800)
Nuiqsut

Weather History for PAQT - August, 2013

Change the Weather History Date:

Monday, August 19, 2013

  Actual Average (PAKU) Record (PAKU)
Temperature  
Mean Temperature 36 °F -  
Max Temperature 39 °F 43 °F 66 °F (1989)
Min Temperature 33 °F 35 °F 27 °F (1991)
Degree Days  
Heating Degree Days 29    
Moisture  
Dew Point 35 °F    
Average Humidity 92    
Maximum Humidity 100    
Minimum Humidity 85    
Precipitation  
Precipitation 0.00 in - - ()
Sea Level Pressure  
Sea Level Pressure 29.88 in    
Wind  
Wind Speed 13 mph (NE)    
Max Wind Speed 20 mph    
Max Gust Speed 25 mph    
Visibility 10 miles    
Events      
Averages and records for this station are not official NWS values.
T = Trace of Precipitation, MM = Missing Value Source: NWS Daily Summary

Daily Weather History Graph

Daily Weather History Graph

Search for Another Location

Airport or City:

Trip Planner

Search our weather history database for the weather conditions in past years. The results will help you decide how hot, cold, wet, or windy it might be!

Date:

Astronomy

Aug. 19, 2013 Rise Set
Actual Time 5:20 AM AKDT 10:50 PM AKDT
Civil Twilight 3:28 AM AKDT 12:37 AM AKDT
Nautical Twilight Sun does not set Sun does not set
Astronomical Twilight Sun does not set Sun does not set
Moon 9:34 PM AKDT (8/19) 3:31 AM AKDT (8/19)
Length of Visible Light 21h 09m
Length of Day
17h 29m
Waxing Gibbous, 98% of the Moon is Illuminated
Aug 19
Waxing Gibbous
Aug 20
Full
Aug 28
Last Quarter
Sep 5
New
Sep 12
First Quarter

Hourly Weather History & Observations

Time (AKDT) Temp. Windchill Dew Point Humidity Pressure Visibility Wind Dir Wind Speed Gust Speed Precip Events Conditions
12:53 AM 37.9 °F 31.5 °F 37.0 °F 97% 29.80 in 10.0 mi NE 9.2 mph - N/A   Overcast
1:53 AM 37.0 °F 29.8 °F 37.0 °F 100% 29.81 in 10.0 mi ENE 10.4 mph - N/A   Overcast
2:53 AM 37.0 °F 28.5 °F 36.0 °F 96% 29.81 in 10.0 mi ENE 13.8 mph - N/A   Overcast
3:53 AM 37.0 °F 29.8 °F 36.0 °F 96% 29.81 in 10.0 mi ENE 10.4 mph - N/A   Overcast
4:53 AM 37.9 °F 30.5 °F 36.0 °F 93% 29.82 in 10.0 mi NE 11.5 mph - N/A   Overcast
5:53 AM 37.9 °F 30.0 °F 36.0 °F 93% 29.82 in 10.0 mi NE 12.7 mph - N/A   Overcast
6:53 AM 37.9 °F 31.5 °F 37.0 °F 97% 29.83 in 10.0 mi NE 9.2 mph - N/A   Overcast
7:53 AM 37.9 °F 30.0 °F 37.0 °F 97% 29.84 in 10.0 mi NE 12.7 mph - N/A   Overcast
8:53 AM 37.9 °F 28.9 °F 36.0 °F 93% 29.84 in 10.0 mi NE 16.1 mph - N/A   Mostly Cloudy
9:53 AM 37.9 °F 28.9 °F 36.0 °F 93% 29.85 in 10.0 mi NE 16.1 mph 21.9 mph N/A   Overcast
10:53 AM 37.9 °F 28.2 °F 36.0 °F 93% 29.87 in 10.0 mi NE 18.4 mph - N/A   Overcast
11:53 AM 39.0 °F 30.6 °F 36.0 °F 89% 29.88 in 10.0 mi NE 15.0 mph - N/A   Overcast
12:28 PM 39.2 °F 30.2 °F 35.6 °F 87% 29.88 in 10.0 mi ENE 17.3 mph 21.9 mph N/A   Overcast
1:08 PM 37.4 °F 28.2 °F 35.6 °F 93% 29.88 in 10.0 mi NE 16.1 mph - N/A   Overcast
1:38 PM 37.4 °F 28.5 °F 35.6 °F 93% 29.89 in 10.0 mi NE 15.0 mph 21.9 mph N/A   Overcast
1:53 PM 37.9 °F 28.9 °F 35.1 °F 89% 29.90 in 10.0 mi NE 16.1 mph - N/A   Overcast
2:06 PM 37.4 °F 28.2 °F 35.6 °F 93% 29.89 in 10.0 mi NE 16.1 mph 25.3 mph N/A   Overcast
2:53 PM 37.0 °F 27.4 °F 35.1 °F 93% 29.90 in 9.0 mi NE 17.3 mph - N/A   Overcast
3:53 PM 37.9 °F 28.9 °F 35.1 °F 89% 29.91 in 10.0 mi NE 16.1 mph 23.0 mph N/A   Overcast
4:53 PM 37.0 °F 28.1 °F 35.1 °F 93% 29.91 in 8.0 mi NE 15.0 mph - N/A   Overcast
5:53 PM 37.0 °F 27.4 °F 35.1 °F 93% 29.91 in 8.0 mi NE 17.3 mph 25.3 mph N/A   Overcast
6:53 PM 37.0 °F 27.0 °F 34.0 °F 89% 29.92 in 10.0 mi NE 18.4 mph - N/A   Overcast
7:29 PM 37.4 °F 28.5 °F 33.8 °F 87% 29.92 in 10.0 mi NE 15.0 mph 21.9 mph N/A   Overcast
7:53 PM 36.0 °F 25.3 °F 33.1 °F 89% 29.92 in 10.0 mi NE 19.6 mph 25.3 mph N/A   Overcast
8:53 PM 36.0 °F 26.3 °F 33.1 °F 89% 29.93 in 10.0 mi NE 16.1 mph - N/A   Overcast
9:53 PM 35.1 °F 25.9 °F 32.0 °F 89% 29.94 in 10.0 mi NNE 13.8 mph 21.9 mph N/A   Overcast
10:53 PM 34.0 °F 23.0 °F 30.9 °F 89% 29.93 in 10.0 mi NE 18.4 mph 23.0 mph N/A   Overcast
11:49 PM 33.8 °F 23.9 °F 30.2 °F 87% 29.93 in 10.0 mi NE 15.0 mph - N/A   Overcast
11:53 PM 34.0 °F 23.8 °F 30.0 °F 85% 29.93 in 10.0 mi NNE 16.1 mph - N/A   Overcast